Location: DARK SKY Beskydy - Park tmavé oblohy, www.darkskybeskydy.cz
(49.4926°N, 18.5016°E)
Time: 05:03:56
(UTC+01:00)

Envisat - Pass Details

Date: 07 December 2022
Orbit: 763 x 765 km, 98.2° (Epoch: 05 February)

Event Time Altitude Azimuth Distance (km) Brightness Sun altitude
Rises 04:29:08 0° 11° (NNE) 3,245 6.4 -27.9°
Reaches altitude 10° 04:31:28 10° 9° (N) 2,314 5.5 -27.5°
Enters shadow 04:33:31 25° 3° (N) 1,533 4.5 -27.2°
